TimeCDT,TemperatureF,Dew PointF,Humidity,Sea Level PressureIn,VisibilityMPH,Wind Direction,Wind SpeedMPH,Gust SpeedMPH,PrecipitationIn,Events,Conditions,WindDirDegrees,DateUTC
12:53 AM,77.0,71.1,82,29.95,10.0,SE,6.9,-,N/A,,Clear,140,2013-06-15 05:53:00
1:53 AM,75.9,70.0,82,29.95,10.0,SE,5.8,-,N/A,,Clear,140,2013-06-15 06:53:00
2:53 AM,73.9,70.0,87,29.95,10.0,SSE,8.1,-,N/A,,Clear,150,2013-06-15 07:53:00
3:53 AM,75.0,69.1,82,29.95,10.0,SSE,11.5,-,N/A,,Clear,160,2013-06-15 08:53:00
4:53 AM,73.9,66.9,79,29.95,10.0,South,11.5,-,N/A,,Clear,170,2013-06-15 09:53:00
5:53 AM,73.9,66.0,76,29.96,10.0,South,13.8,-,N/A,,Clear,180,2013-06-15 10:53:00
6:53 AM,75.0,64.9,71,29.97,10.0,South,13.8,-,N/A,,Clear,190,2013-06-15 11:53:00
7:53 AM,75.9,66.0,71,29.98,10.0,South,6.9,-,N/A,,Clear,190,2013-06-15 12:53:00
8:53 AM,78.1,68.0,71,29.99,10.0,South,8.1,-,N/A,,Clear,190,2013-06-15 13:53:00
9:53 AM,81.0,69.1,67,29.99,10.0,South,6.9,-,N/A,,Clear,180,2013-06-15 14:53:00
10:53 AM,82.0,70.0,67,29.99,10.0,SSW,5.8,-,N/A,,Overcast,200,2013-06-15 15:53:00
11:53 AM,86.0,72.0,63,29.99,10.0,SSW,10.4,-,N/A,,Partly Cloudy,210,2013-06-15 16:53:00
12:53 PM,88.0,73.0,61,29.95,10.0,SSW,6.9,-,N/A,,Clear,210,2013-06-15 17:53:00
1:53 PM,86.0,73.0,65,29.93,10.0,South,9.2,-,N/A,,Scattered Clouds,180,2013-06-15 18:53:00
2:35 PM,78.8,71.6,78,29.95,4.0,SE,13.8,23.0,0.04,Rain-Thunderstorm,Light Rain,130,2013-06-15 19:35:00
2:38 PM,77.0,71.6,83,29.95,1.8,ESE,16.1,-,0.13,Rain-Thunderstorm,Heavy Rain,120,2013-06-15 19:38:00
2:48 PM,75.2,71.6,89,29.92,2.0,East,13.8,23.0,0.16,Thunderstorm,Mostly Cloudy,100,2013-06-15 19:48:00
2:49 PM,75.2,71.6,89,29.92,3.0,East,15.0,23.0,0.16,Thunderstorm,Overcast,90,2013-06-15 19:49:00
2:53 PM,75.0,72.0,90,29.90,5.0,East,15.0,21.9,0.16,Thunderstorm,Overcast,80,2013-06-15 19:53:00
3:19 PM,73.4,71.6,94,30.03,1.2,WNW,17.3,33.4,0.23,Rain-Thunderstorm,Light Thunderstorms and Rain,290,2013-06-15 20:19:00
3:23 PM,69.8,68.0,94,30.03,0.5,WNW,19.6,33.4,0.55,Fog-Rain-Thunderstorm,Light Thunderstorms and Rain,290,2013-06-15 20:23:00
3:49 PM,69.8,66.2,88,30.00,0.8,South,20.7,54.1,2.25,Rain-Thunderstorm,Light Thunderstorms and Rain,180,2013-06-15 20:49:00
3:53 PM,69.1,66.0,90,29.97,1.0,South,13.8,52.9,2.27,Rain-Thunderstorm,Light Thunderstorms and Rain,190,2013-06-15 20:53:00
3:56 PM,69.8,66.2,88,29.99,2.0,South,10.4,-,0.01,Rain-Thunderstorm,Light Thunderstorms and Rain,190,2013-06-15 20:56:00
4:02 PM,68.0,66.2,94,29.99,9.0,SSE,8.1,-,0.01,Rain-Thunderstorm,Light Thunderstorms and Rain,160,2013-06-15 21:02:00
4:22 PM,69.8,68.0,94,30.03,2.0,WNW,18.4,25.3,0.13,Rain-Thunderstorm,Light Thunderstorms and Rain,290,2013-06-15 21:22:00
4:29 PM,69.8,68.0,94,30.03,1.8,NNW,8.1,35.7,0.20,Rain-Thunderstorm,Light Thunderstorms and Rain,330,2013-06-15 21:29:00
4:34 PM,69.8,68.0,94,30.03,3.0,North,5.8,-,0.21,Rain-Thunderstorm,Light Thunderstorms and Rain,350,2013-06-15 21:34:00
4:53 PM,70.0,68.0,93,30.01,8.0,Calm,Calm,-,0.25,Rain-Thunderstorm,Light Thunderstorms and Rain,0,2013-06-15 21:53:00
5:10 PM,69.8,68.0,94,30.06,9.0,Calm,Calm,-,0.02,Rain-Thunderstorm,Light Thunderstorms and Rain,0,2013-06-15 22:10:00
5:53 PM,69.1,68.0,96,30.01,2.5,North,4.6,-,0.10,Thunderstorm,Overcast,10,2013-06-15 22:53:00
5:56 PM,68.0,66.2,94,30.03,1.5,NNE,9.2,-,0.01,Thunderstorm,Overcast,30,2013-06-15 22:56:00
6:03 PM,68.0,66.2,94,30.03,3.0,North,4.6,-,0.02,Thunderstorm,Overcast,10,2013-06-15 23:03:00
6:12 PM,69.8,68.0,94,30.06,10.0,Variable,5.8,-,0.02,Rain,Light Rain,0,2013-06-15 23:12:00
6:30 PM,68.0,68.0,100,30.02,3.0,Variable,5.8,-,0.07,Rain,Rain,0,2013-06-15 23:30:00
6:53 PM,69.1,68.0,96,30.01,10.0,Variable,5.8,-,0.08,Rain,Light Rain,0,2013-06-15 23:53:00
7:26 PM,69.8,68.0,94,30.01,10.0,East,6.9,-,0.01,Rain,Light Rain,90,2013-06-16 00:26:00
7:53 PM,69.1,66.9,93,29.97,10.0,East,8.1,-,0.01,,Clear,80,2013-06-16 00:53:00
8:53 PM,69.1,68.0,96,29.97,10.0,SE,8.1,-,N/A,,Partly Cloudy,140,2013-06-16 01:53:00
9:53 PM,69.1,66.9,93,29.96,10.0,SSE,6.9,-,N/A,,Mostly Cloudy,150,2013-06-16 02:53:00
10:53 PM,69.1,66.0,90,29.95,10.0,SSE,6.9,-,N/A,,Clear,150,2013-06-16 03:53:00
11:53 PM,69.1,66.0,90,29.96,10.0,South,13.8,-,N/A,,Partly Cloudy,170,2013-06-16 04:53:00